Regional Weather Roundup
Issued by NWS

Home | Current Version | Previous Version | Graphics & Text | Print | Product List | Glossary On
Versions: 1 2 3 4 5 6 7 8 9 10 11 12 13 14 15 16 17 18 19 20 21 22 23 24 25 26 27 28 29 30 31 32 33 34 35 36 37 38 39 40 41 42 43 44 45 46 47 48 49 50
570
ASUS44 KLIX 201410
RWRLA
LOUISIANA WEATHER ROUNDUP
NATIONAL WEATHER SERVICE NEW ORLEANS LA
900 AM CDT MON OCT 20 2014

NOTE: "FAIR" INDICATES FEW OR NO CLOUDS BELOW 12,000 FEET WITH NO
      SIGNIFICANT WEATHER AND/OR OBSTRUCTIONS TO VISIBILITY.
      SKY/WX - SKY CONDITION AND SIGNIFICANT WEATHER.
      TMP - AIR TEMPERATURE.    DP   - DEWPOINT TEMPERATURE.
      RH  - RELATIVE HUMIDITY.  PRES - PRESSURE.
      HX  - HEAT INDEX.         WCI  - WIND CHILL INDEX.

*  THESE STATIONS ARE NOT NWS OR FAA STATIONS AND ARE NOT UNDER
   NWS QUALITY CONTROL.

LAZ040-048-061>063-065-066-069-201500-
SOUTHEAST LOUISIANA

CITY           SKY/WX    TMP DP  RH WIND       PRES   REMARKS
N.O. AUDUBON     N/A     71  61  69 MISG        N/A
N.O. INTL ARPT MOSUNNY   70  60  70 NE9       30.06R
N.O. LAKEFRONT SUNNY     69  55  60 NE12      30.06S
N.O. DOWNTOWN* FAIR      66  54  63 N5        30.06S
SLIDELL        SUNNY     59  52  77 N3        30.07R
BATON ROUGE    MOSUNNY   58  51  78 NE3       30.08R
BOOTHVILLE     SUNNY     75  63  66 E3        30.05R
BELLE CHASSE   SUNNY     69  58  67 NE5       30.05R
BOGALUSA*        N/A     56  50  79 CALM      30.10R
NEW ROADS*     FAIR      60  53  78 CALM      30.08S
GONZALES*      FAIR      60  57  91 N3        30.07R
HAMMOND*       SUNNY     63  50  63 CALM      30.09S
HOUMA*         MOSUNNY   66  63  88 NE6       30.06R
PORT FOURCHON* SUNNY     75  61  60 E8        30.07R

$$

LAZ041-044-053-054-201500-
SOUTHWEST LOUISIANA

CITY           SKY/WX    TMP DP  RH WIND       PRES   REMARKS
LAKE CHARLES   SUNNY     62  56  80 NE8       30.07R
LAFAYETTE      MOSUNNY   61  56  83 NE7       30.07R
PATTERSON      NOT AVBL
SALT POINT       N/A     68  61  78 VRB5      30.04R
NEW IBERIA     MOSUNNY   66  58  75 NE3       30.07R
CHENAULT AIRPK MOSUNNY   61  55  82 NE5       30.08R

$$

LAZ027-028-201500-
CENTRAL LOUISIANA

CITY           SKY/WX    TMP DP  RH WIND       PRES   REMARKS
FORT POLK      SUNNY     59  51  75 NE3       30.09R
ALEXANDRIA INT MOSUNNY   56  52  86 CALM      30.09R
ALEXANDRIA     SUNNY     58  53  84 CALM      30.10R

$$

LAZ001-002-201500-
NORTHWEST LOUISIANA

CITY           SKY/WX    TMP DP  RH WIND       PRES   REMARKS
SHREVEPORT     MOSUNNY   58  54  86 CALM      30.11R
BARKSDALE AFB  SUNNY     54  53  95 CALM      30.12R
DTN SHREVEPORT SUNNY     57  50  77 CALM      30.12R

$$

LAZ014-016-201500-
NORTHEAST LOUISIANA

CITY           SKY/WX    TMP DP  RH WIND       PRES   REMARKS
MONROE         MOSUNNY   55  52  89 CALM      30.12R
TALLULAH       SUNNY     56  52  86 CALM      30.12R

$$




USA.gov is the U.S. government's official web portal to all federal, state and local government web resources and services.